When you browse on this site, cookies collect data to enhance your experience and personalize the content and advertising you see.
Visit our Privacy Policy to learn more. By continuing to use the site, you agree to this use of cookies and data.
  • In Slovakia
  • List of Countries
  • For 7 days
  • Water Temperature
  • Satellite Maps
  • Weather Map
  • Weather Widgets
  • user-avatar
    Login

    Hourly Weather Lezhe

    Today, 21 April, Sunday

    Time Temperature Precipitation Wind Pressure Humidity
    00:00 +11°C° 0 mm 3 mps 743 mmHg 60%
    01:00 +11°C° 0 mm 3 mps 743 mmHg 57%
    02:00 +10°C° 0 mm 3 mps 743 mmHg 58%
    03:00 +10°C° 0 mm 3 mps 743 mmHg 59%
    04:00 +9°C° 0 mm 2 mps 743 mmHg 59%
    05:00 +12°C° 0 mm 2 mps 743 mmHg 57%
    06:00 +13°C° 0 mm 2 mps 743 mmHg 55%
    07:00 +14°C° 0 mm 1 mps 743 mmHg 50%
    08:00 +16°C° 0 mm 1 mps 743 mmHg 49%
    09:00 +18°C° 0 mm 1 mps 743 mmHg 48%
    10:00 +19°C° 0 mm 2 mps 742 mmHg 46%
    11:00 +19°C° 0 mm 2 mps 742 mmHg 49%
    12:00 +19°C° 0 mm 3 mps 742 mmHg 52%
    13:00 +19°C° 0 mm 3 mps 741 mmHg 54%
    14:00 +18°C° 0.1 mm 3 mps 741 mmHg 59%
    15:00 +18°C° 0.1 mm 3 mps 741 mmHg 63%
    16:00 +17°C° 0.1 mm 3 mps 740 mmHg 68%
    17:00 +16°C° 0.1 mm 2 mps 740 mmHg 76%
    18:00 +14°C° 0.1 mm 2 mps 740 mmHg 83%
    19:00 +13°C° 0.1 mm 1 mps 740 mmHg 91%
    20:00 +12°C° 0 mm 1 mps 741 mmHg 92%
    21:00 +12°C° 0 mm 1 mps 741 mmHg 93%
    22:00 +12°C° 0 mm 1 mps 741 mmHg 94%
    23:00 +12°C° 0 mm 1 mps 741 mmHg 93%

    Tomorrow, 22 April, Monday

    Time Temperature Precipitation Wind Pressure Humidity
    00:00 +12°C° 0 mm 1 mps 741 mmHg 93%
    01:00 +11°C° 0 mm 1 mps 741 mmHg 93%
    02:00 +11°C° 0 mm 1 mps 740 mmHg 92%
    03:00 +11°C° 0 mm 1 mps 740 mmHg 92%
    04:00 +10°C° 0 mm 1 mps 740 mmHg 91%
    05:00 +11°C° 0 mm 1 mps 739 mmHg 84%
    06:00 +13°C° 0 mm 1 mps 739 mmHg 77%
    07:00 +14°C° 0 mm 1 mps 739 mmHg 70%
    08:00 +16°C° 0 mm 1 mps 739 mmHg 62%
    09:00 +19°C° 0 mm 1 mps 738 mmHg 53%
    10:00 +21°C° 0 mm 1 mps 738 mmHg 45%
    11:00 +21°C° 0 mm 1 mps 738 mmHg 45%
    12:00 +20°C° 0 mm 2 mps 737 mmHg 45%
    13:00 +21°C° 0 mm 2 mps 737 mmHg 44%
    14:00 +20°C° 0 mm 2 mps 737 mmHg 46%
    15:00 +20°C° 0 mm 2 mps 736 mmHg 47%
    16:00 +20°C° 0 mm 2 mps 736 mmHg 49%
    17:00 +18°C° 0 mm 2 mps 736 mmHg 58%
    18:00 +16°C° 0 mm 1 mps 736 mmHg 68%
    19:00 +14°C° 0 mm 1 mps 736 mmHg 78%
    20:00 +14°C° 0.4 mm 1 mps 736 mmHg 80%
    21:00 +14°C° 0.4 mm 1 mps 736 mmHg 82%
    22:00 +14°C° 0.4 mm 1 mps 736 mmHg 84%
    23:00 +14°C° 0.1 mm 2 mps 736 mmHg 84%

    Day after tomorrow, 23 April, Tuesday

    Time Temperature Precipitation Wind Pressure Humidity
    00:00 +14°C° 0.1 mm 2 mps 736 mmHg 83%
    01:00 +14°C° 0.1 mm 2 mps 735 mmHg 83%
    02:00 +13°C° 0.2 mm 3 mps 735 mmHg 82%
    03:00 +13°C° 0.2 mm 3 mps 735 mmHg 81%
    04:00 +13°C° 0.2 mm 3 mps 734 mmHg 81%
    05:00 +14°C° 0 mm 3 mps 734 mmHg 76%
    06:00 +16°C° 0 mm 3 mps 734 mmHg 72%
    07:00 +17°C° 0 mm 2 mps 735 mmHg 68%
    08:00 +19°C° 0 mm 3 mps 735 mmHg 59%
    09:00 +21°C° 0 mm 3 mps 735 mmHg 50%
    10:00 +22°C° 0 mm 4 mps 735 mmHg 40%
    11:00 +22°C° 0 mm 5 mps 736 mmHg 43%
    12:00 +22°C° 0 mm 5 mps 736 mmHg 46%
    13:00 +22°C° 0 mm 6 mps 736 mmHg 48%
    14:00 +21°C° 0.1 mm 6 mps 736 mmHg 50%
    15:00 +21°C° 0.1 mm 5 mps 736 mmHg 52%
    16:00 +21°C° 0.1 mm 5 mps 736 mmHg 54%
    17:00 +19°C° 0.1 mm 4 mps 736 mmHg 62%
    18:00 +18°C° 0.1 mm 3 mps 737 mmHg 70%
    19:00 +16°C° 0.1 mm 2 mps 737 mmHg 77%
    20:00 +16°C° 0.2 mm 2 mps 737 mmHg 79%
    21:00 +15°C° 0.2 mm 2 mps 738 mmHg 81%
    22:00 +15°C° 0.2 mm 2 mps 739 mmHg 83%
    23:00 +15°C° 0 mm 2 mps 739 mmHg 83%

    24 April, Wednesday

    Time Temperature Precipitation Wind Pressure Humidity
    00:00 +14°C° 0 mm 2 mps 739 mmHg 82%
    01:00 +14°C° 0 mm 2 mps 739 mmHg 82%
    02:00 +14°C° 0 mm 2 mps 739 mmHg 80%
    03:00 +14°C° 0 mm 2 mps 739 mmHg 78%
    04:00 +14°C° 0 mm 2 mps 739 mmHg 76%
    05:00 +15°C° 0 mm 2 mps 739 mmHg 71%
    06:00 +16°C° 0 mm 2 mps 739 mmHg 66%
    07:00 +18°C° 0 mm 2 mps 740 mmHg 61%
    08:00 +21°C° 0 mm 1 mps 740 mmHg 53%
    09:00 +24°C° 0 mm 1 mps 740 mmHg 44%
    10:00 +24°C° 0 mm 0 mps 740 mmHg 36%
    11:00 +27°C° 0 mm 1 mps 740 mmHg 35%
    12:00 +27°C° 0 mm 2 mps 740 mmHg 34%
    13:00 +27°C° 0 mm 2 mps 740 mmHg 33%
    14:00 +26°C° 0 mm 3 mps 739 mmHg 36%
    15:00 +25°C° 0 mm 3 mps 739 mmHg 39%
    16:00 +24°C° 0 mm 3 mps 739 mmHg 42%
    17:00 +21°C° 0 mm 3 mps 739 mmHg 48%
    18:00 +19°C° 0 mm 2 mps 739 mmHg 54%
    19:00 +18°C° 0 mm 1 mps 740 mmHg 61%
    20:00 +16°C° 0 mm 1 mps 740 mmHg 61%
    21:00 +16°C° 0 mm 1 mps 741 mmHg 61%
    22:00 +16°C° 0 mm 1 mps 741 mmHg 61%
    23:00 +16°C° 0 mm 1 mps 741 mmHg 62%

    25 April, Thursday

    Time Temperature Precipitation Wind Pressure Humidity
    00:00 +16°C° 0 mm 1 mps 741 mmHg 63%
    01:00 +16°C° 0 mm 1 mps 741 mmHg 64%
    02:00 +16°C° 0 mm 2 mps 741 mmHg 65%
    03:00 +16°C° 0 mm 2 mps 740 mmHg 67%
    04:00 +16°C° 0 mm 2 mps 740 mmHg 68%
    05:00 +17°C° 0 mm 2 mps 740 mmHg 66%
    06:00 +19°C° 0 mm 2 mps 740 mmHg 63%
    07:00 +21°C° 0 mm 1 mps 740 mmHg 61%
    08:00 +23°C° 0.3 mm 1 mps 740 mmHg 54%
    09:00 +25°C° 0.3 mm 1 mps 741 mmHg 48%
    10:00 +25°C° 0.3 mm 0 mps 741 mmHg 42%
    11:00 +27°C° 0 mm 1 mps 740 mmHg 39%
    12:00 +28°C° 0 mm 2 mps 740 mmHg 37%
    13:00 +28°C° 0 mm 3 mps 740 mmHg 35%
    14:00 +27°C° 0 mm 3 mps 739 mmHg 41%
    15:00 +25°C° 0 mm 2 mps 739 mmHg 47%
    16:00 +23°C° 0 mm 2 mps 739 mmHg 54%
    17:00 +21°C° 0 mm 2 mps 739 mmHg 61%
    18:00 +19°C° 0 mm 2 mps 739 mmHg 68%
    19:00 +17°C° 0 mm 2 mps 739 mmHg 75%
    20:00 +17°C° 0 mm 2 mps 739 mmHg 73%
    21:00 +18°C° 0 mm 1 mps 740 mmHg 72%
    22:00 +16°C° 0 mm 1 mps 740 mmHg 70%
    23:00 +16°C° 0 mm 1 mps 740 mmHg 70%

    26 April, Friday

    Time Temperature Precipitation Wind Pressure Humidity
    00:00 +16°C° 0 mm 1 mps 739 mmHg 70%
    01:00 +16°C° 0 mm 1 mps 739 mmHg 69%
    02:00 +16°C° 0 mm 1 mps 739 mmHg 70%
    03:00 +16°C° 0 mm 1 mps 739 mmHg 70%
    04:00 +16°C° 0 mm 1 mps 739 mmHg 70%
    05:00 +18°C° 0 mm 1 mps 739 mmHg 66%
    06:00 +20°C° 0 mm 1 mps 739 mmHg 61%
    07:00 +21°C° 0 mm 1 mps 739 mmHg 57%
    08:00 +23°C° 0 mm 1 mps 739 mmHg 51%
    09:00 +24°C° 0 mm 1 mps 739 mmHg 46%
    10:00 +26°C° 0 mm 2 mps 738 mmHg 41%
    11:00 +26°C° 0 mm 2 mps 738 mmHg 41%
    12:00 +26°C° 0 mm 2 mps 738 mmHg 41%
    13:00 +27°C° 0 mm 3 mps 737 mmHg 41%
    14:00 +26°C° 0 mm 2 mps 737 mmHg 43%
    15:00 +25°C° 0 mm 2 mps 737 mmHg 45%
    16:00 +25°C° 0 mm 2 mps 736 mmHg 48%
    17:00 +23°C° 0 mm 1 mps 736 mmHg 55%
    18:00 +21°C° 0 mm 1 mps 736 mmHg 62%
    19:00 +17°C° 0 mm 0 mps 736 mmHg 69%
    20:00 +16°C° 0 mm 0 mps 736 mmHg 70%
    21:00 +18°C° 0 mm 1 mps 736 mmHg 70%
    22:00 +18°C° 0 mm 1 mps 737 mmHg 71%
    23:00 +16°C° 0 mm 1 mps 736 mmHg 72%
    Show more